Погода в Тынде

Погода в Тынде : погода сейчас, прогноз погоды и архив. Всё, что Вы хотите узнать о погоде в Тынде!

Хотите узнать прогноз погоды в Тынде? Тогда Вам сюда: Погода в Тынде

Поиск расширенной информации на нашем сайте:

Другие новости

Новости СМИ2

Главная страница сайта

Новости сайта

02.10.2013

Напоминаем, что на нашем новом сайте вы можете получить высокодетализированные прогнозы погоды по пунктам России, СНГ и мира (включающие важные для авиации метеовеличины, такие как направление и скорость ветра, видимость, явления погоды, количество и форма облачности, нижняя и верхняя граница облачности), а также ознакомиться с разнообразными материалами по авиационной метеорологии и подборкой полезных ссылок на эту тему.

Сайт Метеоцентр.Азия посвящён разработке технологий оптимизации авиаметеорологического обслуживания, включая проектирование и перспективное создание нескольких автоматизированных авиаметеорологических систем:
- система выпуска высокодетальных прогностических карт явлений погоды для нижнего воздушного пространства по России и ближнему зарубежью;
- система верификации прогнозов TAF (выпускаемых синоптиками официальных АМСГ РФ и ближнего зарубежья) и AUTOTAF (выпускаемых сайтом Метеоцентр.Азия) - выявление ошибок, онлайн-сопоставление с фактической погодой METAR, автоматическое внесение коррективов в прогнозы при резком отклонении фактической погоды от прогноза, подсчёт оправдываемости прогнозов по элементам и в целом;
- система обработки, анализа и отображения авиаметеорологической информации для применения провайдерами метеорологической информации.


Погода в Тынде - сегодня

Время (UTC), дата Ветер
(°,м/с) 
Видим.   Явления Облачность Т
(°С)
Тd
(°С)
f(%) Тe
(°С)
Pmin
(гПа)
dP
(гПа)
Po
(мм)
O2
(г/м3)
Тmin Tmax R s Состояние
почвы
15 14.01.17 260 (З) 20000 м    ясно 
-28.6 -31.7 75 -32  1044.5  -0.3  728  330           
18 14.01.17 260 (З) 20000 м    ясно 
-29.4 -32.6 74 -33  1044.7  -0.1  728  331           
21 14.01.17 250 (З) 20000 м    ясно 
-30.8 -34.3 71 -35  1044.9  -0.2  728  332           
00 15.01.17 250 (З) 20000 м    1/0 верхняя 
[Ci fib]
-30.9 -34.3 72 -35  1044.6  -0.3  728  332  -31.3      18  равномерный
сухой снег
100% 
03 15.01.17 230 (ЮЗ) 20000 м    6/0 верхняя 
[Ci fib]
-26.2 -29.5 74 -30  1041.6  -1.5  726  326           
06 15.01.17 240 (ЮЗ) 20000 м    8/0 верхняя 
[Ci fib]
-18.2 -24.2 59 -22  1037.6  -1.4  725  315           
09 15.01.17 260 (З) 20000 м    4/0 средняя 
[Ac trans]
-20.1 -24.9 65 -24  1038.7  0.6  726  317           
12 15.01.17 240 (ЮЗ) 20000 м    4/0 средняя 
[Ac trans]
-23.8 -26.9 76 -27  1040.1  0.3  726  322    -18       
15 15.01.17 250 (З) 20000 м    6/0 средняя 
[Ac trans]
-24.2 -27.2 76 -27  1040.1  -0.2  726  323           
18 15.01.17 270 (З) 20000 м  {снег}  10/0 средняя 
[Ac As]
-24.5 -27.5 76 -25  1040  -0.1  726  323           
21 15.01.17 270 (З) 10 км  слаб. снег  9/0 средняя 
[Ac As]
-22.8 -25.9 76 -23  1039  -0.5  725  321           
00 16.01.17 270 (З) 20000 м  {снег}  10/0 средняя, верхняя 
[Ac trans|Ci sp]
-23.1 -26.5 74 -26  1039.4  0.3  726  321  -24.9    0.2  17  равномерный
сухой снег
100% 
03 16.01.17 280 (З) 20000 м    3/0 верхняя 
[Ci fib]
-20.7 -25.3 67 -24  1038.3  -0.4  725  318           
06 16.01.17 260 (З) 20000 м    ясно 
-17.4 -23.7 58 -21  1036.1  -1.1  725  313           
09 16.01.17 260 (З) 20000 м    ясно 
-20.3 -24.6 68 -25  1037.5  0.5  725  317           
15 16.01.17 250 (З) 20000 м    6/0 верхняя 
[Ci fib]
-28.6 -31.9 73 -32  1039.6  -0.5  725  328           
18 16.01.17 250 (З) 20000 м    3/0 верхняя 
[Ci fib]
-30.9 -34.3 72 -35  1040.2  0.1  725  331           
21 16.01.17 280 (З) 20000 м    ясно 
-32.5 -36.2 69 -33  1040.5  -0.2  724  333           
00 17.01.17 250 (З) 20000 м    3/0 средняя, верхняя 
[Ac trans|Ci fib]
-33.1 -36.8 69 -37  1040.8  -0.1  724  334  -33.5      17  равномерный
сухой снег
100% 
03 17.01.17 220 (ЮЗ) 20000 м    3/0 верхняя 
[Ci fib]
-29.2 -32.8 71 -30  1039.1  -0.4  724  329  -33.6         
06 17.01.17 260 (З) 20000 м    8/0 верхняя 
[Ci sp]
-21.7 -26.7 64 -25  1035.3  -1.4  723  318           
09 17.01.17 270 (З) 20000 м    4/0 средняя, верхняя 
[Ac trans|Ci fib]
-21.8 -26 69 -26  1035.6  0.2  723  318           
12 17.01.17 250 (З) 20000 м    ясно 
-25.4 -28.3 77 -29  1037.3  0.5  724  323    -20.8       
15 17.01.17 240 (ЮЗ) 20000 м    ясно 
-26.8 -29.9 75 -30  1038  0.3  724  325           
18 17.01.17 240 (ЮЗ) 20000 м    ясно 
-27.8 -31.1 73 -33  1038.4  724  327           
Время (UTC), дата Ветер
(°,м/с) 
Видим.   Явления Облачность Т
(°С)
Тd
(°С)
f(%) Тe
(°С)
Pmin
(гПа)
dP
(гПа)
Po
(мм)
O2
(г/м3)
Тmin Tmax R s Состояние
почвы

Для получения пояснительной информации подведите курсор к названию столбца.

ПОГОДА в Тынде - архив

Всё, что Вы хотите узнать о погоде в Тынде - удобно и подробно!

Выберите нужную дату (начиная с 1 января 2015* года) и нажмите кнопку "Найти".
Будут отображены архивные сводки погоды по пункту Тында, начиная с указанной даты.


Отображать данные в формате CSV (для использования в таблицах Excel)


Внимание! Наш архив погоды предназначен исключительно для личного некоммерческого использования в познавательных целях. Если Вам необходимы официальные справки о состоянии погоды (для производственных, юридических, коммерческих и т.п. целей), обращайтесь в органы Росгидромета.

*Примечание: данная дата относится к архиву по метеостанциям СССР (Россия, СНГ, Балтия).
Архив по метеостанциям Зарубежной Европы и Азии (кроме Китая) хранится 10 дней, по другим регионам земного шара (Китай, Африка, Америка, Австралия, Океания) - 1 день.

Тында - район местоположения метеостанции


Название, широта, долгота, высота метеостанции:
Тында 55.2°ш. 124.7°д. 528 м над ур. моря [Российская Федерация]

Дополнительная информация

В oтличие oт бoльшинства пoгoдных сайтoв мы публикуем пoдрoбную метеoинфoрмацию в детальнoм прoфессиoнальнoм фoрмате.

Характеристики температуры и влажнoсти вoздуха измеряются на высoте 2 м в тени вдали oт зданий и деревьев.
Скoрoсть ветра измеряется на высoте 10 м (на урoвне рoста челoвека скoрoсть ветра ниже в 1.5-2 раза). Если метеoстанция нахoдится в гoрoде или в лесу, тo скoрoсть ветра занижена на 2-4 м/с пo сравнению с oткрытым местoм. Скoрoсть ветра над акватoриями крупных рек и oзёр, а также на вершинах хoлмoв на 2-5 м/с выше, чем в oбычных услoвиях.
Атмoсфернoе давление в разных тoчках местнoсти мoжет значительнo oтличаться oт давления на метеoстанции, в зависимoсти oт услoвий рельефа (при пoдъёме на 10 м давление пoнижается примернo на 1 мм рт.ст.).